When you browse on this site, cookies collect data to enhance your experience and personalize the content and advertising you see.
Visit our Privacy Policy to learn more. By continuing to use the site, you agree to this use of cookies and data.
  • în România
  • Lista ţărilor
  • Pe 7 zile
  • Temperatura apei
  • Meteo pe hartă
  • Widget-uri
  • user-avatar
    Intrare

    Meteo pe oră la Ocotal

    Astăzi, 6 Aprilie, Luni

    Timp Temperatura Precipitaţii Vânt Presiune Umiditate
    00:00 +24°C° 0 mm 1 m/s 708 mmHg 72%
    01:00 +24°C° 0 mm 1 m/s 707 mmHg 76%
    02:00 +23°C° 0 mm 1 m/s 707 mmHg 81%
    03:00 +22°C° 0 mm 1 m/s 707 mmHg 85%
    04:00 +22°C° 0 mm 1 m/s 707 mmHg 88%
    05:00 +22°C° 0 mm 1 m/s 707 mmHg 90%
    06:00 +21°C° 0 mm 1 m/s 707 mmHg 93%
    07:00 +24°C° 0 mm 1 m/s 708 mmHg 77%
    08:00 +28°C° 0 mm 2 m/s 709 mmHg 60%
    09:00 +31°C° 0 mm 2 m/s 711 mmHg 44%
    10:00 +34°C° 0 mm 3 m/s 710 mmHg 37%
    11:00 +35°C° 0 mm 3 m/s 709 mmHg 29%
    12:00 +37°C° 0 mm 4 m/s 708 mmHg 22%
    13:00 +38°C° 0 mm 4 m/s 708 mmHg 21%
    14:00 +38°C° 0 mm 4 m/s 707 mmHg 20%
    15:00 +38°C° 0 mm 4 m/s 707 mmHg 20%
    16:00 +36°C° 0 mm 3 m/s 707 mmHg 24%
    17:00 +34°C° 0 mm 3 m/s 707 mmHg 29%
    18:00 +30°C° 0 mm 2 m/s 707 mmHg 33%
    19:00 +29°C° 0 mm 2 m/s 707 mmHg 39%
    20:00 +27°C° 0 mm 2 m/s 708 mmHg 45%
    21:00 +26°C° 0 mm 1 m/s 709 mmHg 51%
    22:00 +25°C° 0 mm 1 m/s 709 mmHg 56%
    23:00 +24°C° 0 mm 1 m/s 709 mmHg 62%

    Mâine, 7 Aprilie, Marţi

    Timp Temperatura Precipitaţii Vânt Presiune Umiditate
    00:00 +23°C° 0 mm 1 m/s 709 mmHg 68%
    01:00 +23°C° 0 mm 1 m/s 708 mmHg 72%
    02:00 +22°C° 0 mm 1 m/s 708 mmHg 75%
    03:00 +22°C° 0 mm 1 m/s 708 mmHg 79%
    04:00 +21°C° 0 mm 1 m/s 708 mmHg 81%
    05:00 +21°C° 0 mm 1 m/s 708 mmHg 83%
    06:00 +21°C° 0 mm 1 m/s 708 mmHg 85%
    07:00 +24°C° 0 mm 2 m/s 709 mmHg 74%
    08:00 +27°C° 0 mm 2 m/s 710 mmHg 63%
    09:00 +29°C° 0 mm 3 m/s 711 mmHg 52%
    10:00 +31°C° 0 mm 3 m/s 710 mmHg 46%
    11:00 +35°C° 0 mm 4 m/s 710 mmHg 39%
    12:00 +37°C° 0 mm 4 m/s 709 mmHg 33%
    13:00 +37°C° 0 mm 4 m/s 708 mmHg 32%
    14:00 +37°C° 0 mm 4 m/s 707 mmHg 30%
    15:00 +37°C° 0 mm 4 m/s 707 mmHg 29%
    16:00 +36°C° 0 mm 4 m/s 707 mmHg 33%
    17:00 +34°C° 0 mm 3 m/s 707 mmHg 38%
    18:00 +31°C° 0 mm 2 m/s 707 mmHg 43%
    19:00 +30°C° 0 mm 2 m/s 707 mmHg 49%
    20:00 +28°C° 0 mm 2 m/s 708 mmHg 56%
    21:00 +27°C° 0 mm 2 m/s 709 mmHg 62%
    22:00 +26°C° 0 mm 2 m/s 708 mmHg 69%
    23:00 +25°C° 0 mm 2 m/s 708 mmHg 76%

    Poimâine, 8 Aprilie, Miercuri

    Timp Temperatura Precipitaţii Vânt Presiune Umiditate
    00:00 +24°C° 0 mm 2 m/s 708 mmHg 83%
    01:00 +24°C° 0 mm 2 m/s 708 mmHg 87%
    02:00 +23°C° 0 mm 2 m/s 707 mmHg 90%
    03:00 +23°C° 0 mm 2 m/s 707 mmHg 93%
    04:00 +23°C° 0 mm 1 m/s 707 mmHg 94%
    05:00 +22°C° 0 mm 1 m/s 708 mmHg 94%
    06:00 +22°C° 0 mm 1 m/s 708 mmHg 95%
    07:00 +25°C° 0 mm 2 m/s 709 mmHg 79%
    08:00 +27°C° 0 mm 2 m/s 709 mmHg 63%
    09:00 +30°C° 0 mm 3 m/s 710 mmHg 47%
    10:00 +33°C° 0 mm 3 m/s 709 mmHg 41%
    11:00 +35°C° 0 mm 3 m/s 709 mmHg 34%
    12:00 +37°C° 0 mm 4 m/s 708 mmHg 28%
    13:00 +37°C° 0 mm 4 m/s 707 mmHg 26%
    14:00 +38°C° 0 mm 4 m/s 707 mmHg 25%
    15:00 +38°C° 0 mm 4 m/s 706 mmHg 23%
    16:00 +36°C° 0 mm 3 m/s 706 mmHg 28%
    17:00 +34°C° 0 mm 3 m/s 706 mmHg 33%
    18:00 +31°C° 0 mm 2 m/s 706 mmHg 37%
    19:00 +30°C° 0 mm 2 m/s 707 mmHg 44%
    20:00 +28°C° 0 mm 2 m/s 707 mmHg 51%
    21:00 +27°C° 0 mm 1 m/s 708 mmHg 58%
    22:00 +26°C° 0 mm 1 m/s 708 mmHg 64%
    23:00 +25°C° 0 mm 1 m/s 708 mmHg 70%

    9 Aprilie, Joi

    Timp Temperatura Precipitaţii Vânt Presiune Umiditate
    00:00 +24°C° 0 mm 1 m/s 708 mmHg 76%
    01:00 +24°C° 0 mm 1 m/s 707 mmHg 81%
    02:00 +23°C° 0 mm 1 m/s 707 mmHg 86%
    03:00 +22°C° 0 mm 1 m/s 706 mmHg 91%
    04:00 +22°C° 0 mm 1 m/s 707 mmHg 92%
    05:00 +22°C° 0 mm 1 m/s 707 mmHg 93%
    06:00 +22°C° 0 mm 1 m/s 707 mmHg 94%
    07:00 +25°C° 0 mm 1 m/s 708 mmHg 78%
    08:00 +28°C° 0 mm 2 m/s 708 mmHg 62%
    09:00 +31°C° 0 mm 2 m/s 709 mmHg 46%
    10:00 +34°C° 0 mm 3 m/s 708 mmHg 39%
    11:00 +35°C° 0 mm 3 m/s 708 mmHg 32%
    12:00 +37°C° 0 mm 3 m/s 707 mmHg 25%
    13:00 +38°C° 0 mm 3 m/s 706 mmHg 24%
    14:00 +38°C° 0 mm 3 m/s 706 mmHg 23%
    15:00 +38°C° 0 mm 3 m/s 705 mmHg 22%
    16:00 +36°C° 0 mm 3 m/s 705 mmHg 27%
    17:00 +34°C° 0 mm 2 m/s 705 mmHg 32%
    18:00 +31°C° 0 mm 2 m/s 705 mmHg 37%
    19:00 +30°C° 0 mm 2 m/s 706 mmHg 43%
    20:00 +28°C° 0 mm 1 m/s 706 mmHg 50%
    21:00 +26°C° 0 mm 1 m/s 707 mmHg 57%
    22:00 +26°C° 0 mm 1 m/s 707 mmHg 61%
    23:00 +23°C° 0 mm 0 m/s 707 mmHg 66%

    10 Aprilie, Vineri

    Timp Temperatura Precipitaţii Vânt Presiune Umiditate
    00:00 +22°C° 0 mm 0 m/s 707 mmHg 70%
    01:00 +22°C° 0 mm 0 m/s 707 mmHg 74%
    02:00 +21°C° 0 mm 0 m/s 706 mmHg 77%
    03:00 +21°C° 0 mm 0 m/s 706 mmHg 81%
    04:00 +21°C° 0 mm 0 m/s 706 mmHg 82%
    05:00 +21°C° 0 mm 0 m/s 707 mmHg 84%
    06:00 +21°C° 0 mm 0 m/s 707 mmHg 85%
    07:00 +26°C° 0 mm 1 m/s 707 mmHg 73%
    08:00 +29°C° 0 mm 1 m/s 708 mmHg 60%
    09:00 +32°C° 0 mm 1 m/s 709 mmHg 48%
    10:00 +35°C° 0 mm 1 m/s 708 mmHg 39%
    11:00 +37°C° 0 mm 1 m/s 708 mmHg 30%
    12:00 +40°C° 0 mm 1 m/s 708 mmHg 21%
    13:00 +40°C° 0 mm 2 m/s 707 mmHg 20%
    14:00 +40°C° 0 mm 2 m/s 706 mmHg 19%
    15:00 +40°C° 0 mm 2 m/s 705 mmHg 18%
    16:00 +38°C° 0 mm 2 m/s 705 mmHg 23%
    17:00 +36°C° 0 mm 2 m/s 705 mmHg 29%
    18:00 +34°C° 0 mm 2 m/s 705 mmHg 34%
    19:00 +31°C° 0 mm 2 m/s 706 mmHg 43%
    20:00 +29°C° 0 mm 1 m/s 707 mmHg 52%
    21:00 +27°C° 0 mm 1 m/s 707 mmHg 61%
    22:00 +26°C° 0 mm 1 m/s 707 mmHg 66%
    23:00 +26°C° 0 mm 1 m/s 707 mmHg 71%

    11 Aprilie, Sâmbătă

    Timp Temperatura Precipitaţii Vânt Presiune Umiditate
    00:00 +23°C° 0 mm 0 m/s 707 mmHg 76%
    01:00 +23°C° 0 mm 0 m/s 707 mmHg 78%
    02:00 +22°C° 0 mm 0 m/s 707 mmHg 81%
    03:00 +22°C° 0 mm 0 m/s 707 mmHg 84%
    04:00 +22°C° 0 mm 0 m/s 707 mmHg 84%
    05:00 +22°C° 0 mm 0 m/s 707 mmHg 85%
    06:00 +22°C° 0 mm 0 m/s 707 mmHg 86%
    07:00 +25°C° 0 mm 0 m/s 708 mmHg 73%
    08:00 +29°C° 0 mm 0 m/s 709 mmHg 59%
    09:00 +32°C° 0 mm 0 m/s 709 mmHg 46%
    10:00 +34°C° 0 mm 0 m/s 709 mmHg 39%
    11:00 +39°C° 0 mm 1 m/s 708 mmHg 32%
    12:00 +41°C° 0 mm 1 m/s 708 mmHg 24%
    13:00 +40°C° 0 mm 2 m/s 707 mmHg 24%
    14:00 +40°C° 0 mm 2 m/s 706 mmHg 23%
    15:00 +39°C° 0 mm 3 m/s 705 mmHg 22%
    16:00 +38°C° 0 mm 3 m/s 705 mmHg 26%
    17:00 +36°C° 0 mm 2 m/s 706 mmHg 30%
    18:00 +34°C° 0 mm 2 m/s 706 mmHg 34%
    19:00 +31°C° 0 mm 1 m/s 706 mmHg 41%
    20:00 +29°C° 0 mm 1 m/s 707 mmHg 48%
    21:00 +28°C° 0 mm 1 m/s 708 mmHg 55%
    22:00 +27°C° 0 mm 1 m/s 708 mmHg 59%
    23:00 +26°C° 0 mm 1 m/s 708 mmHg 63%
    Arată mai mult